User: anonymous   Login
Location: Unspecified
(0.0000°N, 0.0000°E)
Time: 14:49:58
(UTC+00:00)
Language:

HEATHSAT - Orbit

View from above orbital plane
View from above orbital plane
View from above satellite
View from above satellite

Ground track
Ground track

The orbit data is extracted from the following two-line orbital elements,

1 22827U 93061E   17205.96155572 -.00000009 +00000-0 +14033-4 0  9990
2 22827 098.8174 177.7697 0009000 170.1739 240.6512 14.31215155243198
Epoch (UTC): 24 July 2017 23:04:38
Eccentricity: 0.0009000
inclination: 98.8174°
perigee height: 781 km
apogee height: 794 km
right ascension of ascending node: 177.7697°
argument of perigee: 170.1739°
revolutions per day: 14.31215155
mean anomaly at epoch: 240.6512°
orbit number at epoch: 24319

The dashed part of the orbit path shows where the satellite is in the earth's shadow,  

DLR